TimeCST,TemperatureF,Dew PointF,Humidity,Sea Level PressureIn,VisibilityMPH,Wind Direction,Wind SpeedMPH,Gust SpeedMPH,PrecipitationIn,Events,Conditions,WindDirDegrees,DateUTC
12:13 AM,24.8,21.2,86,29.35,2.5,NNE,18.4,24.2,N/A,Snow,Light Snow,20,2013-02-11 06:13:00
12:34 AM,24.8,21.2,86,29.35,2.5,North,13.8,21.9,N/A,Snow,Light Snow,10,2013-02-11 06:34:00
12:53 AM,24.8,19.4,80,29.35,2.0,NNE,15.0,24.2,N/A,,Overcast,20,2013-02-11 06:53:00
1:14 AM,24.8,19.4,80,29.33,2.0,NNE,18.4,25.3,N/A,,Overcast,20,2013-02-11 07:14:00
1:34 AM,24.8,19.4,80,29.32,2.5,NNE,13.8,23.0,N/A,,Overcast,20,2013-02-11 07:34:00
1:53 AM,24.8,19.4,80,29.32,2.5,NNE,15.0,23.0,N/A,,Overcast,20,2013-02-11 07:53:00
2:13 AM,24.8,19.4,80,29.31,2.5,NNE,17.3,23.0,N/A,,Overcast,20,2013-02-11 08:13:00
2:34 AM,24.8,19.4,80,29.32,3.0,North,15.0,19.6,N/A,,Overcast,360,2013-02-11 08:34:00
2:54 AM,24.8,19.4,80,29.32,3.0,North,15.0,21.9,N/A,,Overcast,10,2013-02-11 08:54:00
3:14 AM,24.8,19.4,80,29.32,3.0,North,13.8,21.9,N/A,,Overcast,10,2013-02-11 09:14:00
3:33 AM,23.0,19.4,86,29.32,4.0,North,11.5,19.6,N/A,Snow,Light Snow,360,2013-02-11 09:33:00
3:54 AM,23.0,19.4,86,29.32,4.0,North,16.1,21.9,N/A,Snow,Light Snow,360,2013-02-11 09:54:00
4:14 AM,23.0,19.4,86,29.32,4.0,North,15.0,20.7,N/A,Snow,Light Snow,350,2013-02-11 10:14:00
4:33 AM,23.0,19.4,86,29.32,4.0,North,15.0,19.6,N/A,Snow,Light Snow,350,2013-02-11 10:33:00
4:54 AM,21.2,17.6,86,29.32,7.0,North,18.4,24.2,N/A,,Overcast,360,2013-02-11 10:54:00
5:13 AM,21.2,17.6,86,29.33,7.0,North,16.1,20.7,N/A,,Overcast,350,2013-02-11 11:13:00
5:34 AM,21.2,17.6,86,29.33,10.0,North,12.7,19.6,N/A,,Overcast,350,2013-02-11 11:34:00
5:54 AM,19.4,15.8,86,29.33,10.0,NNW,12.7,23.0,N/A,,Overcast,340,2013-02-11 11:54:00
6:13 AM,19.4,15.8,86,29.34,7.0,NNW,13.8,21.9,N/A,,Overcast,340,2013-02-11 12:13:00
6:34 AM,19.4,15.8,86,29.36,7.0,NNW,12.7,21.9,N/A,Snow,Light Snow,330,2013-02-11 12:34:00
6:54 AM,19.4,15.8,86,29.37,7.0,NNW,15.0,20.7,N/A,Snow,Light Snow,340,2013-02-11 12:54:00
7:13 AM,19.4,14.0,80,29.38,10.0,NNW,13.8,20.7,N/A,Snow,Light Snow,330,2013-02-11 13:13:00
7:33 AM,19.4,14.0,80,29.39,5.0,NNW,16.1,24.2,N/A,Snow,Light Snow,330,2013-02-11 13:33:00
7:54 AM,17.6,12.2,79,29.40,5.0,NNW,18.4,24.2,N/A,Snow,Light Snow,340,2013-02-11 13:54:00
8:13 AM,17.6,12.2,79,29.41,7.0,NNW,16.1,26.5,N/A,,Overcast,330,2013-02-11 14:13:00
8:33 AM,17.6,10.4,73,29.43,4.0,NNW,19.6,28.8,N/A,,Haze,330,2013-02-11 14:33:00
8:53 AM,17.6,10.4,73,29.43,5.0,NNW,15.0,26.5,N/A,Snow,Light Snow,330,2013-02-11 14:53:00
9:13 AM,17.6,10.4,73,29.44,7.0,NNW,15.0,25.3,N/A,,Overcast,330,2013-02-11 15:13:00
9:33 AM,15.8,10.4,79,29.44,5.0,NNW,16.1,28.8,N/A,Snow,Light Snow,330,2013-02-11 15:33:00
9:54 AM,15.8,8.6,73,29.45,4.0,NW,18.4,26.5,N/A,Snow,Light Snow,320,2013-02-11 15:54:00
10:14 AM,15.8,10.4,79,29.46,3.0,NNW,16.1,25.3,N/A,Snow,Light Snow,330,2013-02-11 16:14:00
10:33 AM,15.8,8.6,73,29.46,3.0,NNW,19.6,33.4,N/A,,Haze,330,2013-02-11 16:33:00
10:53 AM,15.8,8.6,73,29.48,3.0,NNW,21.9,28.8,N/A,Snow,Light Snow,330,2013-02-11 16:53:00
11:13 AM,15.8,8.6,73,29.49,4.0,NNW,12.7,25.3,N/A,Snow,Light Snow,330,2013-02-11 17:13:00
11:33 AM,15.8,8.6,73,29.50,2.0,NNW,19.6,25.3,N/A,Snow,Light Snow,330,2013-02-11 17:33:00
11:54 AM,15.8,8.6,73,29.50,4.0,NW,19.6,27.6,N/A,Snow,Light Snow,320,2013-02-11 17:54:00
12:13 PM,17.6,8.6,68,29.51,7.0,NW,17.3,31.1,N/A,,Mostly Cloudy,310,2013-02-11 18:13:00
12:33 PM,15.8,8.6,73,29.51,4.0,NW,19.6,32.2,N/A,Snow,Light Snow,320,2013-02-11 18:33:00
12:54 PM,15.8,8.6,73,29.52,2.0,NW,19.6,27.6,N/A,Snow,Light Snow,320,2013-02-11 18:54:00
1:13 PM,15.8,8.6,73,29.53,2.5,NW,10.4,21.9,N/A,Snow,Light Snow,310,2013-02-11 19:13:00
1:33 PM,17.6,8.6,68,29.54,1.8,NW,20.7,28.8,N/A,Snow,Light Snow,320,2013-02-11 19:33:00
1:53 PM,17.6,8.6,68,29.55,7.0,NW,10.4,20.7,N/A,Snow,Light Snow,310,2013-02-11 19:53:00
2:14 PM,17.6,8.6,68,29.56,4.0,NW,16.1,24.2,N/A,Snow,Light Snow,320,2013-02-11 20:14:00
2:34 PM,17.6,8.6,68,29.57,5.0,NW,12.7,19.6,N/A,Snow,Light Snow,310,2013-02-11 20:34:00
2:53 PM,15.8,8.6,73,29.58,3.0,NW,13.8,20.7,N/A,Snow,Light Snow,320,2013-02-11 20:53:00
3:14 PM,15.8,8.6,73,29.59,4.0,NW,16.1,25.3,N/A,Snow,Light Snow,320,2013-02-11 21:14:00
3:33 PM,15.8,8.6,73,29.60,4.0,NW,15.0,23.0,N/A,Snow,Light Snow,310,2013-02-11 21:33:00
3:53 PM,15.8,8.6,73,29.61,2.5,WNW,16.1,27.6,N/A,Snow,Light Snow,300,2013-02-11 21:53:00
4:53 PM,15.8,8.6,73,29.65,4.0,WNW,13.8,20.7,N/A,Snow,Light Snow,300,2013-02-11 22:53:00
5:14 PM,15.8,8.6,73,29.66,4.0,NW,11.5,19.6,N/A,Snow,Light Snow,310,2013-02-11 23:14:00
5:34 PM,15.8,8.6,73,29.67,4.0,NW,10.4,17.3,N/A,Snow,Light Snow,310,2013-02-11 23:34:00
5:53 PM,15.8,8.6,73,29.68,7.0,NW,11.5,18.4,N/A,Snow,Light Snow,310,2013-02-11 23:53:00
6:13 PM,14.0,8.6,79,29.69,7.0,NW,13.8,20.7,N/A,Snow,Light Snow,320,2013-02-12 00:13:00
6:33 PM,14.0,8.6,79,29.71,7.0,NW,12.7,23.0,N/A,Snow,Light Snow,320,2013-02-12 00:33:00
6:53 PM,14.0,8.6,79,29.72,5.0,NW,11.5,21.9,N/A,Snow,Light Snow,320,2013-02-12 00:53:00
7:14 PM,14.0,8.6,79,29.73,5.0,NW,12.7,19.6,N/A,Snow,Light Snow,320,2013-02-12 01:14:00
7:33 PM,15.8,8.6,73,29.74,7.0,NW,11.5,17.3,N/A,Snow,Light Snow,310,2013-02-12 01:33:00
7:53 PM,15.8,8.6,73,29.74,7.0,NW,12.7,21.9,N/A,Snow,Light Snow,310,2013-02-12 01:53:00
8:14 PM,15.8,8.6,73,29.75,10.0,NW,10.4,17.3,N/A,Snow,Light Snow,310,2013-02-12 02:14:00
8:34 PM,15.8,8.6,73,29.76,7.0,WNW,10.4,17.3,N/A,Snow,Light Snow,300,2013-02-12 02:34:00
8:54 PM,15.8,8.6,73,29.76,7.0,WNW,12.7,18.4,N/A,Snow,Light Snow,300,2013-02-12 02:54:00
9:14 PM,15.8,8.6,73,29.76,5.0,NW,12.7,19.6,N/A,Snow,Light Snow,310,2013-02-12 03:14:00
9:33 PM,14.0,8.6,79,29.77,7.0,NW,10.4,21.9,N/A,Snow,Light Snow,310,2013-02-12 03:33:00
10:13 PM,14.0,8.6,79,29.78,10.0,WNW,9.2,18.4,N/A,Snow,Light Snow,300,2013-02-12 04:13:00
10:34 PM,12.2,6.8,79,29.78,10.0,NW,8.1,-,N/A,Snow,Light Snow,310,2013-02-12 04:34:00
10:53 PM,12.2,6.8,79,29.78,10.0,NW,6.9,-,N/A,Snow,Light Snow,310,2013-02-12 04:53:00
11:14 PM,12.2,6.8,79,29.79,10.0,WNW,5.8,-,N/A,Snow,Light Snow,300,2013-02-12 05:14:00
11:34 PM,12.2,6.8,79,29.80,10.0,WNW,5.8,-,N/A,Snow,Light Snow,300,2013-02-12 05:34:00
11:53 PM,10.4,6.8,85,29.80,10.0,NW,3.5,-,N/A,Snow,Light Snow,320,2013-02-12 05:53:00